Location: Central Coast NSW, Australia
(33.2407°S, 151.4316°E)
Time: 15:59:39
(UTC+10:00)

Envisat - Pass Details

Date: 31 March 2019
Orbit: 764 x 766 km, 98.2° (Epoch: 24 April)

Event Time Altitude Azimuth Distance (km) Brightness Sun altitude
Rises 06:29:16 0° 51° (NE) 3,225 7.1 -8.3°
Reaches altitude 10° 06:32:07 10° 67° (ENE) 2,308 6.7 -7.7°
Maximum altitude 06:35:43 20° 113° (ESE) 1,739 5.9 -6.9°
Drops below altitude 10° 06:39:20 10° 158° (SSE) 2,329 5.8 -6.2°
Sets 06:42:13 0° 174° (S) 3,264 6.3 -5.6°
